Home > Weather > St Helens > Past weeks

Flag for United Kingdom Weather for the Past 2 Weeks in St Helens, England, United Kingdom

Now
45 °F

Sprinkles. Partly sunny.


Feels Like: 37 °F
Forecast: 41 / 49 °F
Wind: 16 mph from West

Location: Liverpool Airport

Current Time: Apr 29, 2016 at 1:28:13 PM

Latest Report: Apr 29, 2016 at 12:50 PM


Visibility: N/A

Pressure: 29.71 "Hg

Humidity: 81%

Dew Point: 39 °F

Location of St HelensLocation

Historic Weather in St Helens — Graph

°F

St Helens Temperature Yesterday

Maximum temperature yesterday: 46 °F (at 10:20 AM)
Minimum temperature yesterday: 37 °F (at 12:50 AM)
Average temperature yesterday: 41 °F

High & Low Weather Summary for the Past Weeks

 TemperatureHumidityPressure
High63 °F (Apr 20, 3:50 PM)100% (Apr 15, 7:50 AM)30.48 "Hg (Apr 15, 7:50 AM)
Low34 °F (Apr 17, 6:20 AM)37% (Apr 20, 5:20 PM)29.53 "Hg (Apr 15, 4:20 PM)
Average46 °F72%30.01 "Hg
* Reported Apr 14 12:20 PM — Apr 29 12:20 PM, St Helens, Weather by CustomWeather, © 2016

Note: Actual official high and low records may vary slightly from our data, if they occured in-between our weather recording intervals... More about our weather records

Advertising

St Helens Weather History for the Previous 24 Hours

Scroll right to see more
 ConditionsComfort  
Time TempWeatherWind HumidityBarometerVisibility
12:20 PM
Fri, Apr 29
41 °FMixture of precip. Partly sunny.20 mph100%29.71 "HgN/A
11:50 AM41 °FSprinkles. Broken clouds.21 mph93%29.71 "HgN/A
11:20 AM39 °FSprinkles. Broken clouds.25 mph93%29.71 "HgN/A
10:50 AM41 °FSprinkles. Broken clouds.22 mph93%29.68 "HgN/A
10:20 AM41 °FRain showers. Broken clouds.23 mph81%29.68 "Hg5 mi
9:50 AM43 °FScattered showers. Partly sunny.24 mph76%29.65 "HgN/A
9:20 AM39 °FSprinkles. Scattered clouds.24 mph87%29.68 "HgN/A
8:50 AM41 °FSprinkles. Scattered clouds.23 mph81%29.68 "HgN/A
8:20 AM41 °FScattered showers. Scattered clouds.25 mph87%29.68 "HgN/A
7:50 AM39 °FSprinkles. Scattered clouds.21 mph87%29.65 "HgN/A
7:20 AM37 °FScattered showers. Scattered clouds.22 mph93%29.65 "HgN/A
6:50 AM37 °FScattered showers. Scattered clouds.21 mph93%29.65 "HgN/A
6:20 AM37 °FScattered showers. Passing clouds.16 mph93%29.65 "HgN/A
5:50 AM37 °FScattered showers. Passing clouds.16 mph93%29.65 "HgN/A
5:20 AM37 °FScattered showers. Passing clouds.16 mph87%29.65 "HgN/A
4:50 AM37 °FPassing clouds.16 mph87%29.65 "HgN/A
4:20 AM37 °FSprinkles. Passing clouds.15 mph93%29.65 "HgN/A
3:20 AM37 °FScattered showers. Passing clouds.17 mph87%29.68 "HgN/A
2:50 AM39 °FPassing clouds.13 mph81%29.68 "HgN/A
2:20 AM37 °FPassing clouds.17 mph87%29.68 "HgN/A
1:50 AM37 °FPassing clouds.9 mph87%29.68 "HgN/A
1:20 AM37 °FRain showers. Passing clouds.18 mph87%29.71 "HgN/A
12:50 AM39 °FScattered showers. Passing clouds.14 mph81%29.71 "HgN/A
12:20 AM39 °FRain showers. Passing clouds.13 mph87%29.71 "HgN/A
11:50 PM
Thu, Apr 28
37 °FPassing clouds.14 mph93%29.71 "HgN/A
11:20 PM39 °FScattered showers. Passing clouds.10 mph81%29.68 "HgN/A
10:50 PM39 °FScattered showers. Passing clouds.10 mph87%29.68 "HgN/A
10:20 PM39 °FScattered showers. Passing clouds.13 mph87%29.68 "HgN/A
9:50 PM39 °FScattered showers. Passing clouds.14 mph87%29.68 "HgN/A
9:20 PM37 °FRain showers. Scattered clouds.20 mph93%29.68 "HgN/A
8:50 PM41 °FScattered showers. Passing clouds.17 mph81%29.68 "HgN/A
8:20 PM41 °FScattered showers. Passing clouds.10 mph87%29.68 "HgN/A
7:50 PM41 °FScattered showers. Passing clouds.14 mph87%29.68 "HgN/A
7:20 PM41 °FThunderstorms. Scattered clouds.20 mph87%29.68 "HgN/A
6:50 PM45 °FPassing clouds.13 mph87%29.68 "HgN/A
6:20 PM45 °FPassing clouds.10 mph81%29.68 "HgN/A
5:50 PM43 °FScattered showers. Scattered clouds.15 mph87%29.71 "HgN/A
5:20 PM43 °FLight rain. Partly sunny.18 mph87%29.71 "HgN/A
4:50 PM43 °FLight rain. Partly sunny.13 mph93%29.71 "Hg6 mi
4:20 PM43 °FLight rain. Partly sunny.15 mph93%29.71 "Hg6 mi
3:50 PM43 °FRain. Partly sunny.20 mph93%29.74 "Hg4 mi
3:20 PM45 °FLight rain. Partly sunny.14 mph87%29.71 "Hg6 mi
2:50 PM45 °FScattered showers. Partly sunny.15 mph81%29.74 "HgN/A
2:20 PM45 °FScattered showers. Partly sunny.17 mph87%29.74 "HgN/A
1:20 PM41 °FLight rain. More clouds than sun.12 mph87%29.80 "HgN/A
Weather by CustomWeather, © 2016

See weather overviewHow to use our weather pages